Date,TemperatureHighF,TemperatureAvgF,TemperatureLowF,DewpointHighF,DewpointAvgF,DewpointLowF,HumidityHigh,HumidityAvg,HumidityLow,PressureMaxIn,PressureMinIn,WindSpeedMaxMPH,WindSpeedAvgMPH,GustSpeedMaxMPH,PrecipitationSumIn
2014-1-26,32.0,15.3,-1.0,32.0,15.1,-1.0,99,98,94,0.00,40.00,10,5,21,0.00
2014-1-27,36.0,14.1,2.0,36.0,12.8,2.0,99,94,71,0.00,40.00,12,7,29,0.00
2014-1-28,9.0,1.6,-7.0,4.0,-2.2,-7.0,99,85,61,0.00,40.00,10,6,18,0.00
2014-1-29,16.0,8.5,0.0,6.0,2.0,-6.0,94,75,58,0.00,40.00,21,11,29,0.00
2014-1-30,31.0,21.2,12.0,13.0,7.6,6.0,75,57,39,0.00,40.00,11,6,26,0.00
2014-1-31,37.0,32.8,30.0,31.0,23.4,13.0,99,70,46,0.00,40.00,9,5,17,0.00
2014-2-1,43.0,35.8,30.0,43.0,33.7,-99.9,99,97,99,0.00,40.00,10,4,18,0.00
2014-2-21,56.0,41.5,37.0,56.0,35.4,24.0,99,79,58,0.00,40.00,22,12,37,0.00
2014-2-22,43.0,38.6,35.0,38.0,25.9,-99.9,99,65,40,0.00,40.00,19,10,31,0.00
2014-2-23,36.0,32.0,26.0,36.0,29.0,19.0,99,89,62,0.00,40.00,11,6,18,0.00
2014-2-24,26.0,23.2,21.0,23.0,20.9,19.0,99,90,73,0.00,40.00,14,6,27,0.00
2014-2-25,23.0,19.4,14.0,22.0,18.3,14.0,99,95,81,0.00,40.00,10,4,17,0.00
2014-2-26,20.0,13.2,9.0,19.0,10.2,7.0,99,87,71,0.00,40.00,11,4,21,0.00
2014-2-27,17.0,12.2,2.0,16.0,8.7,-1.0,99,85,73,0.00,40.00,17,7,30,0.00
2014-4-6,53.0,38.3,26.0,36.0,26.3,-99.9,99,72,42,0.00,40.00,6,2,12,0.00
2014-4-7,57.0,43.4,32.0,48.0,38.8,32.0,99,86,51,0.00,40.00,9,3,19,0.00
2014-4-8,53.0,44.0,36.0,40.0,35.5,27.0,99,76,42,0.00,40.00,10,4,17,0.00
2014-4-9,50.0,43.0,35.0,38.0,33.6,27.0,99,71,45,0.00,40.00,6,2,12,0.00
2014-4-10,71.0,57.7,44.0,53.0,36.1,31.0,99,47,25,0.00,40.00,17,7,29,0.00
2014-4-11,59.0,52.1,45.0,52.0,47.5,38.0,99,86,47,0.00,40.00,9,2,14,0.00
2014-4-12,72.0,61.2,46.0,48.0,40.5,34.0,96,51,25,0.00,40.00,11,4,17,0.00
2014-4-13,67.0,58.6,67.0,44.0,25.8,-99.9,43,42,40,0.00,40.00,4,4,10,0.00
2014-6-15,-200.0,0.0,200.0,-99.9,-99.9,-99.9,99,99,99,0.00,40.00,0,0,1,0.00
2014-6-16,73.0,72.5,72.0,66.0,65.0,64.0,81,76,72,0.00,40.00,6,4,9,0.00
2014-6-18,67.0,67.0,67.0,67.0,67.0,67.0,99,99,99,0.00,40.00,1,1,4,0.00
2014-11-20,24.0,24.0,24.0,20.0,20.0,20.0,86,86,85,0.00,40.00,15,14,24,0.00
2014-11-22,-200.0,0.0,200.0,-99.9,0.0,200.0,0,0,100,0.00,40.00,9,9,17,0.00
2014-11-24,61.0,54.8,43.0,61.0,53.7,40.0,99,95,87,0.00,40.00,23,12,37,0.00
2014-11-25,40.0,35.2,33.0,37.0,34.6,33.0,99,97,88,0.00,40.00,18,8,26,0.00
2014-11-26,35.0,33.6,33.0,35.0,33.6,33.0,99,99,99,0.00,40.00,4,1,7,0.00
2014-11-27,34.0,31.8,29.0,34.0,31.7,29.0,99,99,94,0.00,40.00,6,2,14,0.00
2014-11-28,29.0,26.2,24.0,28.0,24.2,21.0,99,91,80,0.00,40.00,9,4,16,0.00
2014-11-29,51.0,37.9,28.0,47.0,33.5,28.0,99,83,64,0.00,40.00,13,5,25,0.00
2014-11-30,61.0,55.2,49.0,61.0,54.1,48.0,99,96,89,0.00,40.00,11,7,21,0.00
2014-12-1,48.0,34.6,28.0,48.0,33.6,25.0,99,95,87,0.00,40.00,8,2,15,0.00
2014-12-2,35.0,30.2,25.0,35.0,29.5,24.0,99,96,86,0.00,40.00,7,4,13,0.00
2014-12-3,36.0,35.0,34.0,36.0,34.6,31.0,99,98,86,0.00,40.00,17,8,26,0.00
2014-12-4,37.0,30.9,27.0,34.0,30.6,27.0,99,98,85,0.00,40.00,6,2,9,0.00
2014-12-5,40.0,36.9,29.0,40.0,36.9,29.0,99,99,99,0.00,40.00,5,2,12,0.00
2014-12-6,39.0,37.2,34.0,39.0,37.0,34.0,99,96,92,0.00,40.00,10,4,18,0.00
2014-12-7,38.0,32.4,28.0,34.0,30.3,27.0,99,92,72,0.00,40.00,7,3,14,0.00
2014-12-8,44.0,37.7,34.0,37.0,24.5,22.0,99,59,44,0.00,40.00,9,6,22,0.00
2014-12-9,41.0,37.8,35.0,41.0,37.8,35.0,99,99,99,0.00,40.00,6,2,12,0.00
2014-12-10,37.0,28.5,31.0,37.0,28.5,31.0,99,90,99,0.00,40.00,6,3,23,0.00
2014-12-11,36.0,29.0,29.0,31.0,28.6,25.0,99,94,64,0.00,40.00,9,5,19,0.00
2014-12-12,35.0,32.3,31.0,35.0,32.3,31.0,99,99,99,0.00,40.00,10,4,17,0.00
2014-12-13,42.0,34.7,29.0,42.0,34.7,29.0,99,99,99,0.00,40.00,11,6,17,0.00
2014-12-14,45.0,42.1,41.0,45.0,42.1,41.0,99,97,99,0.00,40.00,11,2,18,0.00
2014-12-15,52.0,46.1,43.0,52.0,46.1,43.0,99,99,99,0.00,40.00,6,2,15,0.00
2014-12-16,50.0,45.0,43.0,50.0,45.0,43.0,99,99,99,0.00,40.00,12,5,24,0.00
2014-12-17,43.0,34.2,30.0,43.0,34.2,30.0,99,99,99,0.00,40.00,12,8,25,0.00
2014-12-18,32.0,30.8,29.0,32.0,30.8,29.0,99,99,99,0.00,40.00,7,3,20,0.00
2014-12-19,32.0,30.4,29.0,32.0,30.3,29.0,99,99,97,0.00,40.00,4,1,9,0.00
2014-12-20,31.0,25.3,29.0,31.0,24.7,29.0,99,95,99,0.00,40.00,3,1,6,0.00
2014-12-21,33.0,30.4,26.0,33.0,30.4,26.0,99,99,99,0.00,40.00,3,1,6,0.00
2014-12-22,47.0,33.4,24.0,42.0,32.8,24.0,99,97,82,0.00,40.00,11,4,18,0.00
2014-12-23,51.0,45.3,38.0,51.0,45.2,38.0,99,99,99,0.00,40.00,9,4,21,0.00
2014-12-24,58.0,52.0,40.0,58.0,52.0,40.0,99,99,99,0.00,40.00,27,7,37,0.00
2014-12-25,41.0,39.0,37.0,41.0,38.8,37.0,99,99,99,0.00,40.00,18,10,35,0.00
2014-12-26,50.0,41.3,35.0,44.0,40.0,35.0,99,94,79,0.00,40.00,7,4,16,0.00
2014-12-27,58.0,48.4,43.0,50.0,42.6,37.0,99,80,47,0.00,40.00,12,6,21,0.00
2014-12-28,48.0,36.3,30.0,47.0,36.3,30.0,99,99,99,0.00,40.00,7,2,17,0.00
2014-12-29,32.0,29.6,25.0,32.0,29.5,25.0,99,98,85,0.00,40.00,3,1,7,0.00
2014-12-30,27.0,23.5,21.0,27.0,23.0,21.0,99,97,85,0.00,40.00,7,2,14,0.00
2014-12-31,24.0,20.7,17.0,22.0,16.1,11.0,99,82,64,0.00,40.00,19,9,30,0.00
2015-1-1,34.0,26.3,19.0,24.0,17.9,13.0,84,70,53,0.00,40.00,19,12,30,0.00
2015-1-2,32.0,28.8,24.0,31.0,27.2,24.0,99,93,82,0.00,40.00,12,4,23,0.00